This is the latest recevied weather packets stored in our database for station/object M0SDM-10. If no packets are shown the sender has not sent any weather packets the latest 10 day(s).
| Time | Temp. | Humidity | Pressure | Rain* | Wind** | Luminosity | Snow |
|---|---|---|---|---|---|---|---|
| 1777292821 | 16.11° C | 62% | 1013.6 hPa | - | - | - | - |
| 1777291021 | 16.11° C | 62% | 1013.8 hPa | - | - | - | - |
| 1777289221 | 16.11° C | 64% | 1013.9 hPa | - | - | - | - |
| 1777287421 | 16.11° C | 63% | 1014 hPa | - | - | - | - |
| 1777285621 | 15.56° C | 64% | 1013.9 hPa | - | - | - | - |
| 1777283820 | 15.56° C | 65% | 1013.8 hPa | - | - | - | - |
| 1777282020 | 15° C | 66% | 1013.8 hPa | - | - | - | - |
| 1777280220 | 14.44° C | 66% | 1013.8 hPa | - | - | - | - |
| 1777278420 | 13.89° C | 67% | 1013.8 hPa | - | - | - | - |
| 1777276620 | 13.33° C | 67% | 1013.7 hPa | - | - | - | - |
| 1777274820 | 12.78° C | 66% | 1013.8 hPa | - | - | - | - |
| 1777273020 | 12.78° C | 66% | 1013.9 hPa | - | - | - | - |
| 1777271219 | 12.78° C | 66% | 1014 hPa | - | - | - | - |
| 1777269419 | 12.78° C | 66% | 1013.8 hPa | - | - | - | - |
| 1777267619 | 12.78° C | 65% | 1013.7 hPa | - | - | - | - |
| 1777265819 | 12.78° C | 65% | 1013.5 hPa | - | - | - | - |
| 1777264019 | 12.78° C | 65% | 1013.6 hPa | - | - | - | - |
| 1777262219 | 13.33° C | 65% | 1013.6 hPa | - | - | - | - |
| 1777260419 | 13.33° C | 65% | 1013.6 hPa | - | - | - | - |
| 1777258618 | 13.33° C | 66% | 1013.6 hPa | - | - | - | - |
| 1777256816 | 13.33° C | 66% | 1013.6 hPa | - | - | - | - |
| 1777255015 | 13.89° C | 66% | 1013.6 hPa | - | - | - | - |
| 1777253214 | 13.89° C | 66% | 1013.7 hPa | - | - | - | - |
| 1777251414 | 13.89° C | 65% | 1014 hPa | - | - | - | - |
| 1777249614 | 13.89° C | 66% | 1014 hPa | - | - | - | - |
* Rain since midnight (hover to see other rain measurements)
** Current wind speed in m/s (hover to see current wind gust speed)